Weather History for Burlington, IA

Change the Weather History Date:

Sunday, May 4, 2014

  Actual Average Record
Temperature  
Mean Temperature 57 °F 60 °F  
Max Temperature 69 °F 71 °F 90 °F (1949)
Min Temperature 45 °F 49 °F 26 °F (1907)
Degree Days  
Heating Degree Days 8 6  
Month to date heating degree days 41 27  
Since 1 July heating degree days 6722 5489  
Cooling Degree Days 0 1  
Month to date cooling degree days 0 4  
Year to date cooling degree days 8 24  
Growing Degree Days 7 (Base 50)    
Moisture  
Dew Point 40 °F    
Average Humidity 65    
Maximum Humidity 93    
Minimum Humidity 37    
Precipitation  
Precipitation 0.00 in 0.16 in 2.18 in (2012)
Month to date precipitation T 0.66  
Year to date precipitation 9.58 10.07  
Sea Level Pressure  
Sea Level Pressure 29.97 in    
Wind  
Wind Speed 11 mph (ENE)    
Max Wind Speed 24 mph    
Max Gust Speed 31 mph    
Visibility 10 miles    
Events      
T = Trace of Precipitation, MM = Missing Value Source: NWS Daily Summary

Daily Weather History Graph

Daily Weather History Graph

Search for Another Location

Airport:

Trip Planner

Search our weather history database for the weather conditions in past years. The results will help you decide how hot, cold, wet, or windy it might be!

Date:

Astronomy

May. 04, 2014 Rise Set
Actual Time 5:59 AM CDT 8:03 PM CDT
Civil Twilight 5:29 AM CDT 8:34 PM CDT
Nautical Twilight 4:52 AM CDT 9:11 PM CDT
Astronomical Twilight 4:12 AM CDT 9:51 PM CDT
Moon 10:23 AM CDT (5/4) 12:09 AM CDT (5/4)
Length of Visible Light 15h 04m
Length of Day
14h 04m
Waxing Crescent, 28% of the Moon is Illuminated
May 4
Waxing Crescent
May 6
First Quarter
May 14
Full
May 21
Last Quarter
May 28
New

Hourly Weather History & Observations

Time (CDT) Temp. Dew Point Humidity Pressure Visibility Wind Dir Wind Speed Gust Speed Precip Events Conditions
12:53 AM 55.9 °F 45.0 °F 67% 29.94 in 10.0 mi NNW 9.2 mph - N/A   Clear
1:53 AM 53.1 °F 46.0 °F 77% 29.94 in 10.0 mi North 5.8 mph - N/A   Clear
2:53 AM 48.9 °F 45.0 °F 86% 29.94 in 10.0 mi Calm Calm - N/A   Clear
3:53 AM 46.9 °F 45.0 °F 93% 29.95 in 10.0 mi North 4.6 mph - N/A   Clear
4:53 AM 48.9 °F 44.1 °F 83% 29.96 in 10.0 mi NNE 6.9 mph - N/A   Clear
5:53 AM 50.0 °F 39.0 °F 66% 29.99 in 10.0 mi Calm Calm - N/A   Clear
6:53 AM 50.0 °F 39.9 °F 68% 30.00 in 10.0 mi ENE 4.6 mph - N/A   Clear
7:53 AM 52.0 °F 39.0 °F 61% 30.03 in 10.0 mi NE 11.5 mph - N/A   Clear
8:53 AM 54.0 °F 37.9 °F 55% 30.03 in 10.0 mi NE 15.0 mph - N/A   Clear
9:53 AM 57.9 °F 37.9 °F 47% 30.03 in 10.0 mi NE 13.8 mph - N/A   Clear
10:53 AM 60.1 °F 37.9 °F 44% 30.05 in 10.0 mi NNE 18.4 mph - N/A   Clear
11:53 AM 61.0 °F 37.9 °F 42% 30.03 in 10.0 mi ENE 12.7 mph 21.9 mph N/A   Clear
12:53 PM 61.0 °F 37.9 °F 42% 30.01 in 10.0 mi NE 13.8 mph 21.9 mph N/A   Clear
1:53 PM 64.0 °F 39.9 °F 41% 29.98 in 10.0 mi East 12.7 mph - N/A   Clear
2:53 PM 66.0 °F 39.9 °F 38% 29.96 in 10.0 mi East 12.7 mph - N/A   Clear
3:53 PM 66.0 °F 41.0 °F 40% 29.96 in 10.0 mi East 11.5 mph - N/A   Clear
4:53 PM 68.0 °F 43.0 °F 40% 29.94 in 10.0 mi East 11.5 mph - N/A   Clear
5:53 PM 66.0 °F 42.1 °F 42% 29.93 in 10.0 mi ENE 11.5 mph - N/A   Clear
6:53 PM 64.4 °F 39.2 °F 40% 29.89 in 10.0 mi East 16.1 mph 24.2 mph N/A   Clear
7:53 PM 60.1 °F 37.9 °F 44% 29.95 in 10.0 mi NE 15.0 mph - N/A   Clear
8:53 PM 59.0 °F 37.0 °F 44% 29.92 in 10.0 mi East 16.1 mph 25.3 mph N/A   Clear
9:53 PM 57.0 °F 37.0 °F 47% 29.92 in 10.0 mi East 11.5 mph - N/A   Clear
10:53 PM 55.9 °F 37.0 °F 49% 29.95 in 10.0 mi ENE 13.8 mph - N/A   Clear
11:53 PM 54.0 °F 30.0 °F 40% 29.91 in 10.0 mi East 17.3 mph 28.8 mph N/A   Clear